Hourly Weather Roundup
Issued by NWS Central Illinois

Home | Current Version | Previous Version | Text Only | Print | Product List | Glossary On
Versions: 1 2 3 4 5 6 7 8 9 10 11 12 13 14 15 16 17 18 19 20 21 22 23 24 25 26 27 28 29 30 31 32 33 34 35 36 37 38 39 40 41 42 43 44 45 46 47 48 49 50
000
NZUS43 KILX 241710
HWRILX

AREA WEATHER ROUNDUP
NATIONAL WEATHER SERVICE, LINCOLN IL
1200 PM CDT SUN MAY 24 2015


CITY           SKY/WX    TMP DP  RH WIND       PRES   REMARKS
BLOOMINGTON    LGT RAIN  79  64  61 S24       30.08F HX  81
CHAMPAIGN      MOSUNNY   84  59  42 S24G31    30.09F HX  84
DANVILLE       PTSUNNY   81  59  47 S14       30.10F HX  82
DECATUR        PTSUNNY   81  64  56 S10G23    30.07F HX  82
EFFINGHAM      MOSUNNY   81  58  45 SE12G20   30.11F HX  81
FLORA          SUNNY     81  61  49 S14G22    30.11F HX  82
GALESBURG      CLOUDY    75  63  66 SE10G17   29.99F
JACKSONVILLE   LGT RAIN  78  64  61 S18G29    30.01F HX  80
LACON          CLOUDY    76  59  56 S8G16     30.02F
LAWRENCEVILLE  SUNNY     82  58  43 S17G25    30.14F HX  82
LITCHFIELD     MOSUNNY   78  64  61 SE21      30.05F HX  80
$$


CITY           SKY/WX    TMP DP  RH WIND       PRES   REMARKS
LINCOLN        CLOUDY    80  63  54 S16G22    30.02F HX  82
MACOMB         PTSUNNY   75  63  64 S16       30.00F
MATTOON        MOSUNNY   79  61  53 S14G22    30.11F HX  80
MT CARMEL AP   MOSUNNY   86  50  28 S17       30.13F HX  84
OLNEY-NOBLE AP CLOUDY    79  61  53 S13G18    30.12F HX  80
PARIS          MOSUNNY   82  59  45 S14       30.14F HX  82
PEORIA         CLOUDY    80  61  52 S8        30.02F HX  81
PONTIAC        CLOUDY    82  59  46 S16       30.07F HX  82
RANTOUL        PTSUNNY   84  60  44 S15G25    30.09F HX  84
ROBINSON       MOSUNNY   81  56  42 S13       30.14F HX  81
SPRINGFIELD    CLOUDY    79  63  57 S20G25    30.04F HX  80
TAYLORVILLE    PTSUNNY   79  64  61 S16G25    30.06F HX  81
$$

...REGIONAL REPORTS...


CITY           SKY/WX    TMP DP  RH WIND       PRES   REMARKS
CHICAGO O`HARE CLOUDY    72  51  47 E8        30.12F
KANKAKEE       CLOUDY    80  62  53 S12       30.10F HX  81
MOLINE         HVY RAIN  65  60  84 E9        29.99F
MOUNT VERNON   PTSUNNY   82  64  54 S15G22    30.11S HX  84
PITTSFIELD     PTSUNNY   77  65  66 SE13      30.00S
QUINCY         CLOUDY    75  63  66 S14G22    29.96F
ROCKFORD       CLOUDY    68  55  63 SE10      30.10F
$$


CITY           SKY/WX    TMP DP  RH WIND       PRES   REMARKS
BURLINGTON     LGT RAIN  70  63  78 S13       29.96F
CEDAR RAPIDS   CLOUDY    60  59  96 E14       29.96F
DES MOINES     CLOUDY    64  61  90 SE12      29.88S
KIRKSVILLE     LGT RAIN  69  65  86 S14       29.94S
OTTUMWA        CLOUDY    69  63  81 S14G21    29.92S
ST LOUIS       PTSUNNY   82  62  50 S23G31    30.02F HX  83
$$


CITY           SKY/WX    TMP DP  RH WIND       PRES   REMARKS
TERRE HAUTE    MOSUNNY   80  59  48 S10G21    30.14F HX  81
EVANSVILLE     MOSUNNY   81  58  45 S13       30.16F HX  81
INDIANAPOLIS   MOSUNNY   80  55  42 S14       30.17F HX  80
LAFAYETTE      PTSUNNY   77  57  50 S13G18    30.14F
MADISON        LGT RAIN  60  56  86 E9        30.13F
MILWAUKEE      LGT RAIN  64  55  72 S6        30.18S
$$




USA.gov is the U.S. government's official web portal to all federal, state and local government web resources and services.